Wind_Speed
33 34 33 31 28 25 23 21 20 20 21 21 21 22 22 23 23 24 24 25 26 27 27 28 30 30 31 31 32 33 35 36 38 36 33 30 26 22 20 18 15 12 9 7 8 10 13 16 19 22 24 27 30 32 34 35 35 35 35 34 33 33 33 31 27 26 28 30 30 29 29 28 28 28 28 27 27 29 31 31 33 33 33 32 31 33 34 30
31 32 32 32 31 29 27 25 23 22 21 21 21 22 22 23 23 23 23 24 25 26 27 28 29 29 29 30 31 31 33 34 36 36 33 30 27 24 21 19 17 14 10 7 6 8 11 14 17 20 22 25 28 30 32 33 34 35 34 34 34 33 33 30 28 27 28 30 30 29 29 29 28 28 28 27 27 29 30 30 30 30 31 32 32 34 34 31
30 30 31 31 32 31 30 29 27 25 23 22 21 22 22 22 23 23 23 23 24 25 26 27 27 28 29 29 29 30 31 32 34 35 34 31 28 26 22 20 18 15 12 8 5 5 8 11 14 17 20 23 26 28 30 32 33 34 33 33 33 33 32 30 28 27 29 30 30 30 29 29 29 28 27 26 26 28 29 27 28 28 30 33 34 35 34 33
27 28 29 30 30 31 31 31 30 29 27 25 23 22 22 22 23 23 23 24 24 25 26 26 26 27 28 28 28 28 29 30 31 33 34 31 29 27 23 20 18 16 13 9 5 3 4 7 11 14 17 21 24 26 29 30 31 32 32 31 32 32 31 30 29 28 29 31 31 30 30 30 29 28 27 26 26 27 27 27 30 31 32 34 35 35 35 34
25 26 27 28 29 29 30 30 31 31 30 29 27 26 24 24 23 24 24 24 23 24 26 26 26 27 28 28 27 27 27 28 29 31 32 32 29 27 24 20 18 16 14 10 7 3 1 4 8 11 15 18 21 24 26 28 30 31 30 30 32 32 32 31 30 29 30 31 31 31 30 30 30 29 27 27 28 30 31 33 34 35 35 35 36 36 36 35
24 24 25 26 27 28 29 29 29 30 31 31 31 30 28 26 25 24 24 23 24 25 26 27 27 27 28 28 27 27 26 26 27 28 30 31 30 27 24 21 18 16 14 11 7 4 1 3 6 9 12 16 19 22 24 26 28 29 29 30 32 32 32 32 30 30 31 32 32 32 32 32 32 31 31 31 32 34 36 38 37 37 36 36 38 39 38 36
23 24 24 25 25 26 27 29 29 30 30 31 32 32 31 28 26 25 24 24 24 25 26 28 28 28 28 27 27 26 25 25 25 26 28 29 30 28 25 22 18 15 13 11 8 5 2 2 4 7 10 13 16 19 22 24 26 27 28 30 32 33 33 32 31 31 31 32 33 34 34 34 34 35 36 38 38 37 37 38 38 38 38 38 39 39 38 36
23 24 24 24 24 25 26 28 29 30 30 31 32 33 32 31 29 28 26 25 25 26 27 28 29 29 28 27 26 26 25 24 23 23 25 26 28 28 25 22 19 16 13 11 10 7 4 2 3 6 8 11 14 17 19 22 24 25 27 29 32 34 34 33 32 32 32 33 34 35 36 36 36 37 39 40 42 42 40 39 39 39 40 40 40 39 38 36
24 25 25 25 24 25 25 26 28 29 30 30 31 32 32 33 32 30 29 28 27 28 28 28 29 29 28 27 25 25 25 24 23 22 22 23 25 27 26 23 20 17 14 11 10 8 6 3 1 4 7 9 12 14 17 19 22 24 26 29 31 33 34 34 33 33 33 33 34 36 37 38 39 39 40 41 42 42 42 41 40 40 40 41 40 39 37 37
26 26 26 26 25 25 25 26 27 28 29 29 30 31 32 33 33 32 31 31 30 29 29 30 30 29 28 27 25 25 24 23 23 21 20 21 22 24 25 24 21 18 15 12 10 8 7 5 2 1 4 7 9 12 15 17 20 23 25 27 30 32 33 34 34 34 34 35 35 37 38 39 40 40 40 41 42 42 42 42 42 41 41 41 40 39 38 38
28 28 27 27 27 26 26 26 26 27 28 28 29 30 31 32 32 32 33 32 32 31 30 31 31 30 28 27 26 25 24 23 22 21 19 19 19 20 22 23 22 19 16 13 11 8 6 5 3 1 1 4 7 10 13 16 19 22 24 27 29 31 33 33 33 35 35 36 36 37 39 40 40 40 41 42 42 41 42 42 42 43 43 42 41 40 40 39
32 30 29 28 28 28 27 27 27 27 27 28 27 28 29 30 31 32 32 32 32 32 31 31 31 30 29 28 26 25 24 23 22 21 19 18 18 18 19 20 22 20 18 15 12 10 7 5 3 2 1 2 4 8 11 14 18 21 24 26 29 31 32 33 33 34 35 36 37 38 39 40 41 41 43 43 42 42 42 42 43 44 44 43 42 41 41 40
37 35 33 31 29 28 28 28 28 27 27 27 27 27 28 29 30 31 31 31 32 32 32 31 30 30 30 29 27 25 24 23 22 21 20 18 17 16 16 17 18 20 19 17 14 11 8 6 3 2 1 1 3 6 9 13 17 20 23 26 28 30 32 33 33 33 34 35 36 38 39 41 42 43 44 43 43 43 42 43 45 46 46 45 44 43 42 42
40 39 37 35 32 30 29 28 28 28 28 27 27 27 27 27 28 29 30 30 30 31 31 31 31 30 30 30 28 25 24 23 22 21 20 18 17 16 15 15 15 16 18 18 16 14 10 7 5 3 1 2 4 5 8 11 15 18 22 25 27 30 31 33 34 34 34 35 36 37 39 41 42 43 44 44 44 43 42 44 47 48 47 46 45 44 44 43
41 41 41 39 36 34 32 30 29 28 28 28 28 27 27 27 27 28 28 29 29 30 30 30 30 30 30 30 28 26 25 23 22 21 20 19 18 16 15 14 13 13 14 15 16 15 13 10 8 6 4 2 3 5 8 11 13 17 20 23 27 30 30 33 35 36 36 36 36 37 39 41 41 43 44 45 45 44 45 48 49 48 48 47 47 46 45 44
40 41 42 42 40 37 35 33 31 29 29 28 28 28 28 28 27 27 27 28 29 29 29 29 29 30 30 29 28 27 26 25 23 22 21 19 18 17 16 14 13 12 11 11 12 13 13 11 10 8 6 5 3 4 6 9 12 16 18 21 26 28 29 33 34 36 38 39 38 39 40 41 41 43 44 45 46 45 46 48 49 49 48 48 48 48 46 45
40 41 42 43 43 41 38 36 33 32 30 29 28 28 27 27 28 27 27 27 28 28 28 28 28 28 29 29 28 27 27 26 25 24 23 21 19 18 17 15 14 12 10 9 9 10 10 11 10 10 8 7 6 5 5 7 10 14 17 20 24 26 28 31 33 36 38 40 41 42 43 42 42 44 45 46 47 47 47 48 49 49 48 49 49 49 48 47
40 41 42 43 44 43 42 39 36 34 33 31 30 28 27 27 27 27 27 27 28 28 28 27 27 27 28 29 29 28 27 26 25 25 24 23 21 19 17 16 15 13 11 9 8 7 8 9 9 10 9 9 8 7 7 8 9 12 15 18 22 25 27 29 31 35 38 40 42 45 46 46 46 47 47 48 49 49 49 50 51 50 51 51 52 51 50 49
41 41 42 43 44 44 44 42 39 37 35 34 32 30 28 27 27 27 27 26 27 28 28 28 27 27 26 27 29 29 29 27 25 24 24 23 23 21 19 17 16 15 13 11 9 8 6 6 7 9 9 9 9 9 9 10 11 12 15 17 20 24 25 27 30 34 38 40 42 45 47 48 50 51 50 51 51 51 51 51 52 53 54 55 54 54 52 51
41 41 42 42 43 44 44 44 42 40 37 36 34 32 30 29 28 27 27 26 26 27 27 28 28 27 26 26 27 29 29 28 27 25 24 23 23 22 21 20 18 16 14 13 12 10 8 7 6 7 8 9 10 11 11 12 13 14 16 18 21 24 25 26 29 33 37 39 41 44 47 49 51 52 52 52 52 50 50 53 55 56 56 56 56 54 53 52
42 42 41 42 43 43 44 45 44 42 40 38 36 34 33 32 30 28 27 26 26 26 27 27 28 28 28 26 26 27 28 28 28 27 26 24 24 23 22 22 21 19 16 14 14 12 11 10 8 7 7 8 10 11 12 14 15 17 19 20 22 25 26 28 30 33 36 37 39 43 46 48 51 52 53 54 53 51 51 54 56 57 57 56 56 55 54 54
42 42 42 42 42 43 44 44 45 44 43 40 37 36 36 35 33 31 29 27 26 26 26 27 27 28 28 27 26 26 26 27 28 28 27 26 25 24 23 23 23 23 21 18 16 15 14 13 12 11 10 10 10 12 13 15 16 18 20 22 24 25 26 29 32 34 37 37 38 42 45 46 49 52 53 54 54 52 52 55 57 57 57 56 56 56 56 57
42 42 42 42 43 43 43 44 45 45 44 41 38 38 39 39 37 34 31 28 27 27 27 27 27 28 28 28 27 27 26 27 27 27 27 27 27 26 25 24 24 24 24 22 20 18 17 16 15 14 13 13 13 13 15 16 18 20 21 23 25 27 28 31 33 36 39 39 39 42 44 45 47 50 52 53 53 51 50 53 57 58 58 57 57 57 58 60
42 42 42 43 43 43 43 44 44 45 44 43 40 39 41 41 39 37 33 29 28 28 28 28 28 29 29 28 28 28 28 28 29 28 28 28 28 28 27 25 24 24 24 24 23 21 19 18 18 18 17 16 15 16 17 18 20 21 22 23 26 28 30 34 36 37 40 42 43 44 44 45 47 48 50 51 52 52 52 53 57 59 59 59 58 59 61 62
42 42 42 43 43 44 44 44 44 44 44 43 42 41 42 42 40 38 34 30 29 28 28 29 30 29 28 27 27 28 28 30 31 31 30 28 28 28 29 28 26 25 25 25 25 24 23 21 20 20 19 18 18 18 19 21 23 23 23 24 27 29 32 35 38 39 42 45 47 46 47 47 48 49 49 49 50 52 54 55 56 58 60 61 62 62 63 64
42 43 43 43 44 44 44 44 44 44 44 43 43 42 42 42 40 37 33 31 31 29 29 30 30 30 28 27 27 28 30 32 33 33 32 31 30 29 29 29 28 27 26 26 26 26 25 24 23 21 21 20 20 20 21 23 25 26 25 25 27 29 32 34 37 40 44 48 48 48 50 51 49 48 48 48 49 49 51 54 55 57 61 64 66 66 66 65
43 43 44 44 44 45 45 45 45 44 44 43 43 42 42 42 41 36 32 32 32 31 30 30 31 31 30 29 28 28 31 34 36 35 34 34 33 31 30 30 30 29 28 27 27 27 27 27 26 24 22 22 22 22 22 25 27 28 28 28 29 30 30 31 35 39 43 46 48 49 52 54 52 50 50 49 48 48 48 50 52 55 59 63 66 68 68 66
45 45 45 45 45 45 45 45 45 45 44 44 43 43 43 42 41 38 34 33 33 32 32 32 32 33 33 32 31 31 32 35 37 36 35 35 35 34 33 31 31 31 30 30 28 28 28 28 28 27 25 24 24 23 24 26 29 30 31 31 31 30 28 28 32 36 38 40 45 49 53 55 54 54 53 52 51 51 51 51 53 57 60 62 64 66 67 67
48 47 47 46 47 46 46 46 46 46 45 44 44 44 44 43 42 40 36 34 35 34 33 34 36 36 35 35 34 33 33 35 37 37 36 36 35 35 35 34 33 32 32 31 31 29 28 28 29 29 28 27 25 25 25 27 30 31 33 33 33 30 26 26 29 31 32 34 40 45 50 55 56 56 56 54 53 54 56 57 58 59 61 63 64 66 67 68
49 50 49 48 48 48 47 46 46 46 46 46 45 44 44 44 43 41 38 36 35 35 35 37 39 38 37 36 36 35 34 35 37 37 36 36 36 35 35 35 35 35 34 33 33 32 30 29 30 30 31 30 28 27 27 28 30 32 34 35 34 29 25 23 25 27 27 30 36 41 47 53 56 58 58 56 55 57 60 60 58 57 59 63 65 66 67 67
50 52 52 51 50 50 49 47 47 46 46 47 46 45 45 45 43 42 40 38 36 35 37 39 40 39 39 38 37 37 36 36 37 38 37 37 36 36 36 36 36 36 36 35 34 34 33 31 31 31 32 33 32 29 28 29 31 33 35 36 35 30 25 21 21 23 24 28 34 39 43 48 53 57 58 57 59 63 63 63 62 60 62 64 64 66 67 67
50 52 53 53 52 52 51 50 48 47 47 47 47 46 46 45 44 43 41 40 37 35 37 39 39 39 39 38 38 38 38 37 38 39 39 37 36 37 37 36 36 36 37 36 35 35 35 34 33 32 32 34 34 33 31 31 32 35 36 37 36 32 26 21 19 19 22 26 30 34 37 40 47 54 56 58 62 65 65 65 65 64 64 64 64 65 66 66
50 52 53 55 54 53 53 52 51 49 48 47 47 47 46 45 45 44 43 41 39 37 38 38 38 38 37 36 37 39 40 39 39 39 40 38 36 37 38 37 37 36 37 37 36 36 36 36 35 34 33 34 36 36 35 34 34 36 37 38 37 33 27 20 17 17 19 22 26 30 31 35 43 49 52 58 62 64 65 66 67 66 65 64 63 64 66 66
50 52 54 55 56 56 55 55 54 52 50 48 47 47 47 46 45 45 44 43 41 40 39 38 37 36 35 34 36 38 39 40 40 40 40 39 37 37 38 38 37 37 37 37 37 37 37 37 37 37 35 35 36 37 37 37 36 37 38 39 39 35 28 22 18 15 16 19 23 26 28 33 40 44 50 57 61 63 65 66 68 68 67 65 63 62 63 64
51 53 55 56 58 58 58 57 57 55 53 50 47 47 48 47 46 45 44 44 43 42 40 38 36 35 35 35 35 36 38 40 41 40 41 40 38 38 39 39 37 37 37 37 37 37 38 38 38 38 37 36 37 37 38 38 37 38 39 39 38 35 29 24 20 17 16 18 20 23 27 32 37 41 46 52 56 61 64 64 66 67 68 67 65 64 63 62
53 55 56 57 58 60 60 59 59 58 56 53 50 49 49 47 46 46 45 45 44 43 42 40 38 37 37 36 35 35 37 39 40 40 40 41 40 38 38 39 37 37 37 37 37 37 38 38 38 39 39 38 38 38 38 38 38 38 38 39 38 35 28 24 21 19 17 18 19 21 24 29 33 38 43 47 50 54 56 58 61 63 64 66 67 68 68 67
55 56 58 58 59 60 61 61 61 61 59 55 52 51 50 48 47 47 46 46 45 44 43 42 40 39 38 38 37 36 37 39 40 39 38 39 40 38 37 37 37 36 36 36 36 36 37 39 39 39 40 40 39 38 39 39 39 38 39 39 39 36 30 24 21 20 19 19 20 21 22 26 29 33 39 43 45 47 48 50 54 58 60 63 65 68 69 69
56 57 58 59 60 61 63 63 63 63 61 58 56 53 50 48 48 47 48 48 46 44 43 43 42 41 40 39 40 40 40 41 41 39 37 38 39 39 37 36 35 34 35 36 36 36 36 38 39 40 40 41 40 39 39 39 39 39 39 39 39 38 32 25 22 21 20 20 22 23 23 25 28 30 35 38 39 42 43 45 48 53 56 59 61 62 64 66
58 58 59 60 62 64 65 65 64 63 62 61 59 57 53 50 48 48 49 48 46 45 44 43 42 42 41 41 42 44 44 43 43 41 39 38 38 39 37 35 34 34 35 36 37 36 35 37 39 40 41 41 41 40 40 39 39 39 39 39 39 38 34 27 23 22 21 21 23 25 26 28 29 30 32 34 35 37 39 42 45 48 51 54 57 57 57 59
60 60 60 62 64 66 67 66 65 63 63 63 62 59 56 53 51 50 49 48 47 46 45 43 42 42 42 41 43 46 46 45 45 43 41 40 39 38 37 35 33 34 36 37 37 36 35 36 38 40 41 42 41 41 40 40 40 39 40 40 40 39 35 29 25 23 23 22 23 25 27 30 31 32 32 33 34 35 36 40 43 44 46 46 48 52 53 51
62 62 63 64 66 68 69 68 66 65 64 64 63 61 59 56 54 52 50 49 49 48 46 44 43 43 43 41 42 45 47 46 46 45 43 42 40 38 38 36 35 34 36 37 37 37 35 35 37 39 40 41 42 41 41 40 41 40 40 40 40 40 37 32 28 26 24 24 23 23 25 29 33 34 32 32 33 34 35 38 40 41 41 39 40 45 49 48
65 65 65 66 68 70 71 69 68 67 66 64 63 62 60 58 56 53 52 51 50 48 47 45 44 43 43 42 42 44 46 47 47 47 45 43 42 41 39 38 36 35 34 36 37 37 36 35 35 37 39 41 42 42 41 40 40 40 40 40 40 40 39 34 30 29 27 26 25 22 22 28 34 33 29 27 30 33 35 37 38 37 35 37 40 42 43 44
68 68 68 69 70 72 73 72 71 70 68 66 64 63 62 60 58 55 53 52 50 49 48 47 45 44 43 43 43 44 44 45 47 49 48 45 44 44 42 39 37 35 34 35 37 37 37 35 35 36 38 40 41 41 41 40 41 40 40 41 41 41 40 36 32 31 30 29 27 24 22 26 30 30 27 24 25 30 33 35 35 33 31 34 38 39 39 40
71 71 71 71 72 74 75 75 74 73 71 68 66 65 63 61 60 58 56 53 51 50 49 48 46 45 44 43 44 45 45 45 48 49 49 47 46 45 44 42 38 34 33 34 35 37 37 36 35 36 37 39 40 41 40 39 40 40 40 40 41 41 40 37 33 32 32 31 28 26 25 25 25 26 25 23 25 29 32 31 30 30 30 31 33 35 37 38
75 74 74 75 76 77 78 78 77 75 73 71 68 66 64 62 61 61 58 55 53 51 50 49 48 46 45 45 44 45 46 47 48 50 49 48 49 48 47 45 41 35 32 33 34 36 37 36 35 35 37 38 39 40 40 39 39 40 40 40 41 41 41 39 35 33 32 31 29 28 28 26 24 23 22 23 26 29 30 29 28 29 30 31 32 34 35 35
79 79 79 80 81 81 82 81 80 78 76 73 70 67 65 63 62 61 60 58 56 53 51 50 49 48 47 46 44 43 45 47 49 51 49 47 48 51 50 48 44 37 33 33 34 36 37 37 36 35 36 38 39 40 40 39 38 39 40 40 40 41 41 39 35 33 32 30 30 29 27 26 23 20 18 20 24 26 27 28 28 29 30 29 30 30 30 30
82 83 84 84 84 84 84 83 82 80 78 75 71 68 66 64 63 62 61 60 58 56 53 51 50 49 48 48 45 43 44 46 48 51 50 46 47 50 50 50 48 41 35 33 35 36 36 37 37 36 36 37 38 39 40 38 37 38 39 39 39 40 40 39 35 32 31 30 29 28 26 24 22 18 15 15 18 22 25 25 24 25 24 23 24 25 24 24
85 85 86 86 86 85 85 84 83 82 79 77 73 69 66 65 64 62 61 59 58 58 56 54 52 51 49 49 47 44 44 46 47 49 49 47 47 49 50 50 49 45 38 35 35 36 36 37 37 36 36 36 37 38 39 38 37 37 38 38 38 39 39 38 35 32 30 29 29 27 25 23 20 17 13 11 12 15 18 19 19 19 19 19 20 21 20 19
87 87 88 88 88 87 86 85 84 83 81 78 73 69 67 66 65 63 61 59 59 59 58 56 55 54 52 50 49 47 47 47 47 47 47 47 47 48 49 49 49 47 42 38 36 36 36 36 37 36 36 36 36 37 38 37 36 37 38 38 38 38 38 38 35 32 29 28 28 26 24 21 18 14 12 9 9 10 12 14 16 17 18 18 17 17 17 17
90 91 91 92 91 90 88 87 85 84 81 78 74 70 69 68 66 65 63 62 61 61 59 57 56 56 55 53 52 50 50 49 48 46 45 46 47 47 47 48 50 49 44 40 38 37 37 36 36 36 35 35 35 36 38 37 35 36 37 38 38 37 37 37 35 32 28 27 27 25 22 19 16 12 10 8 7 7 9 11 12 13 14 14 14 15 16 16
95 95 95 94 93 92 90 88 86 83 80 78 75 73 71 70 69 68 66 64 64 63 61 58 56 57 57 56 55 54 53 51 49 48 46 45 47 47 47 49 50 49 45 41 38 37 37 37 36 35 35 36 35 35 37 36 34 35 36 37 37 36 36 37 35 31 28 26 25 24 22 18 14 11 8 6 6 6 7 8 9 9 11 12 12 13 13 13
100 99 98 97 95 93 92 89 86 83 80 78 77 75 74 73 71 70 69 67 66 64 61 58 57 58 60 60 58 56 56 53 51 50 48 47 47 47 47 48 48 47 45 41 38 38 37 37 36 34 35 36 35 34 36 36 33 34 36 36 36 35 35 36 35 30 26 25 24 23 21 18 14 11 8 6 6 6 7 8 8 8 9 10 10 10 11 11
Wind_Direction
34 33 32 29 24 18 11 4 355 349 344 341 337 332 329 327 325 324 323 323 325 326 327 329 330 332 334 335 338 341 346 352 357 359 359 360 360 0 1 2 360 351 333 305 274 253 243 236 232 228 224 220 215 211 209 210 212 213 214 213 210 209 210 212 214 214 215 217 216 216 216 216 216 216 216 216 214 215 217 218 217 214 213 217 217 218 219 220
33 33 33 32 30 26 21 14 7 359 351 345 339 335 332 330 328 327 326 325 325 326 328 331 333 334 335 335 339 342 346 353 358 1 1 2 3 4 4 5 6 1 350 329 292 260 245 238 232 226 220 216 211 208 207 208 210 211 212 210 208 208 210 211 213 214 215 216 215 216 217 216 217 216 216 216 216 220 220 221 223 222 220 220 219 220 221 221
32 32 32 32 30 28 25 22 17 11 3 355 347 341 337 335 333 331 329 327 326 327 330 334 334 336 336 336 340 342 346 353 359 3 4 4 6 6 6 7 9 8 1 350 323 272 246 236 229 222 216 211 208 206 206 208 209 211 210 209 207 206 209 211 213 214 215 216 215 215 216 217 217 216 215 213 216 222 223 223 225 226 225 224 223 223 224 221
30 31 31 31 30 28 26 24 21 18 14 8 360 352 346 341 338 334 331 329 328 329 332 334 335 336 337 337 341 342 346 352 359 5 6 7 8 9 9 9 11 12 9 3 354 312 248 230 224 217 212 209 206 205 206 208 210 210 209 208 206 205 207 210 213 214 215 215 214 215 215 217 217 216 215 213 214 220 222 222 221 220 222 224 223 224 225 223
25 27 28 29 29 28 26 24 22 20 18 15 11 5 359 352 345 338 334 331 330 330 332 332 333 336 337 338 341 343 346 351 358 5 8 10 10 10 12 12 13 15 15 12 11 6 255 216 214 211 209 208 207 207 208 209 210 211 209 207 205 203 206 209 211 213 215 215 214 214 214 215 215 214 213 212 213 215 215 217 219 218 220 223 223 224 224 223
19 22 24 25 26 26 25 23 22 21 19 18 15 12 8 2 354 346 340 334 331 330 331 331 332 334 335 338 342 343 345 350 357 5 9 12 13 12 13 16 16 17 19 20 21 29 67 192 202 205 207 209 209 210 210 211 212 211 209 207 205 203 205 208 210 212 215 215 214 213 213 214 214 211 207 207 212 214 215 216 218 218 218 221 222 224 224 223
14 16 19 21 22 23 23 22 21 20 19 18 16 14 12 8 3 358 351 343 336 332 330 330 331 332 333 336 340 343 345 349 356 4 9 13 16 15 15 18 20 20 21 24 26 32 66 150 190 200 207 211 212 213 214 214 214 213 210 207 205 203 204 207 209 212 214 215 215 213 213 213 213 212 208 207 210 213 216 217 218 217 217 219 222 224 225 223
9 11 13 16 18 19 20 21 20 19 18 17 16 14 12 10 7 4 360 354 348 342 337 334 332 331 332 334 338 341 345 349 354 2 9 13 17 18 17 19 22 24 23 26 29 29 39 106 172 193 206 212 215 217 218 218 217 215 212 209 206 204 204 207 209 211 213 215 215 214 214 214 213 213 212 211 212 214 216 218 219 220 219 220 222 224 225 224
6 7 8 11 14 15 17 18 18 17 17 16 15 13 12 10 8 5 2 359 356 352 348 343 338 335 334 334 336 339 344 348 351 359 7 12 17 20 19 20 23 27 28 28 32 33 30 36 153 190 202 209 214 218 220 220 220 218 215 212 209 206 206 208 210 211 213 215 216 216 216 215 215 214 215 215 215 216 217 218 220 221 221 222 224 224 225 225
5 5 6 7 9 11 13 15 17 17 16 15 14 13 11 9 7 5 3 1 358 355 353 351 347 342 340 337 336 336 341 346 348 354 2 9 16 21 21 21 23 27 32 32 32 36 36 31 20 226 210 209 212 216 219 220 221 220 218 215 212 210 209 210 212 213 214 215 217 218 219 219 218 217 217 218 218 218 219 219 221 222 222 223 224 225 225 226
6 4 4 4 6 6 8 10 13 15 15 14 13 12 10 8 6 4 3 1 359 356 355 354 352 349 346 342 340 337 339 343 346 350 357 4 12 20 23 24 24 25 31 35 35 35 36 37 29 360 265 229 219 217 218 219 221 221 220 218 215 214 212 212 214 216 217 217 218 219 220 222 222 221 220 221 221 222 222 223 224 225 224 223 224 225 226 227
10 6 4 2 2 2 3 4 7 10 12 12 11 11 9 7 5 3 2 1 359 357 356 356 354 353 351 348 346 343 340 341 343 345 352 359 6 14 22 26 27 27 28 32 37 38 35 31 24 18 354 247 231 225 222 221 222 223 223 221 220 218 216 214 215 218 220 221 221 221 222 223 224 224 224 223 223 224 225 226 227 228 227 225 225 225 226 227
14 10 6 3 1 359 359 0 2 4 7 9 9 9 8 7 5 3 1 0 359 358 357 356 355 355 356 354 352 348 345 342 341 342 346 354 0 7 15 24 29 30 29 29 32 36 37 35 22 358 302 233 228 229 227 226 225 226 226 225 225 223 220 217 217 219 223 224 224 224 224 225 225 226 227 226 226 226 227 228 230 230 229 227 226 226 226 227
15 13 10 6 2 359 357 358 359 360 2 4 6 6 6 5 5 3 0 359 358 358 358 357 355 356 358 358 356 352 349 347 345 342 343 348 353 360 7 16 25 31 32 30 30 31 31 32 28 15 326 254 234 228 226 228 228 229 230 229 229 228 225 221 219 219 222 225 227 228 228 228 227 228 229 229 228 228 227 230 232 231 231 230 228 227 227 227
13 13 12 9 6 1 357 356 356 356 358 360 2 3 3 3 4 3 1 358 357 358 358 357 356 357 359 359 358 355 354 353 351 347 346 345 346 351 357 5 14 24 31 32 32 30 27 25 20 14 1 322 258 238 232 231 230 230 231 231 233 232 230 228 223 221 220 222 226 228 231 231 230 230 231 231 231 229 228 230 233 233 233 232 232 230 229 228
10 11 11 10 8 4 359 356 354 353 354 356 358 359 360 1 2 3 2 359 357 357 358 358 357 358 359 358 357 357 357 356 354 353 351 347 343 344 347 354 360 9 21 28 33 32 29 25 20 14 5 352 322 275 252 244 239 237 235 233 234 234 233 232 230 226 222 221 222 225 229 230 232 232 232 233 233 232 232 233 235 235 235 235 234 233 231 230
7 7 8 8 8 6 2 358 354 352 351 352 353 355 357 358 359 1 2 1 359 357 357 357 358 359 360 359 357 356 356 357 357 357 356 352 347 343 340 342 345 351 1 11 23 29 28 24 20 16 8 358 344 323 290 267 254 250 246 242 241 238 235 234 233 232 229 225 223 224 225 226 229 231 230 231 232 232 233 235 236 236 236 236 236 235 233 231
5 4 4 6 6 5 3 0 356 352 350 349 349 351 353 354 356 358 359 0 360 358 357 356 356 359 360 360 358 356 355 357 358 358 358 357 354 349 342 336 333 336 341 348 358 11 20 21 16 12 5 358 349 339 321 299 282 268 260 253 249 246 242 239 237 235 234 231 228 227 226 224 226 229 228 229 230 230 230 233 235 236 236 236 236 235 234 233
1 2 1 2 3 3 2 1 358 354 351 348 348 348 349 350 352 354 356 357 358 358 358 356 355 357 359 360 358 356 355 356 356 357 357 358 357 355 350 341 332 327 327 329 332 339 351 4 8 5 358 350 342 336 328 316 303 290 277 267 259 254 250 245 243 240 238 236 232 231 230 228 228 228 228 228 228 229 229 231 233 234 235 235 235 235 234 234
357 358 359 359 0 1 1 0 359 356 352 350 348 347 348 348 349 350 352 353 353 355 358 357 356 355 357 359 359 356 355 355 355 356 356 356 356 357 356 351 343 333 324 319 318 320 323 330 341 346 346 342 335 328 323 316 310 300 289 279 270 264 259 251 246 244 243 241 237 235 233 231 231 231 231 230 229 229 230 231 233 234 235 235 235 235 235 235
354 354 355 356 357 358 359 359 359 358 354 351 349 348 348 348 347 346 348 349 349 351 355 357 356 354 354 357 357 356 355 354 354 355 356 356 354 355 356 356 353 347 335 321 313 312 313 313 312 313 318 323 324 321 317 312 309 302 295 288 278 271 266 259 252 247 245 243 241 240 238 235 234 233 233 233 231 230 230 232 233 235 236 236 236 235 235 235
351 351 351 353 354 355 356 357 358 358 356 353 350 348 347 348 347 345 344 345 346 348 351 354 355 353 352 354 354 354 355 353 353 354 355 355 354 353 354 355 356 355 350 339 324 313 306 303 300 297 296 300 305 309 309 307 305 302 297 291 283 277 270 263 258 253 250 245 241 241 240 239 238 236 235 235 233 232 233 235 235 236 236 236 236 235 235 235
348 348 348 350 351 351 353 354 356 357 356 354 351 347 345 346 346 345 343 342 343 345 347 350 352 351 350 350 351 352 353 352 352 352 353 354 353 352 352 354 355 357 357 352 342 327 311 301 297 294 291 292 295 299 303 303 302 300 297 292 286 281 275 268 262 256 253 250 244 241 239 239 239 240 239 237 235 233 233 235 236 237 237 237 236 235 235 235
346 346 346 347 348 348 349 351 353 354 355 354 352 348 344 343 343 343 342 341 341 342 344 345 347 349 350 349 349 351 352 351 350 350 350 351 350 350 350 351 353 354 356 355 352 343 328 312 300 295 293 293 295 297 300 301 299 297 295 293 288 283 279 272 265 258 253 250 246 243 240 238 238 239 239 239 238 235 234 234 236 238 238 238 237 236 236 235
344 344 344 344 345 346 346 348 350 352 352 352 351 349 345 343 340 339 341 342 342 342 342 342 345 348 350 350 351 354 355 354 351 348 347 347 348 348 346 347 349 350 351 353 353 351 343 330 313 301 296 294 295 298 300 301 300 298 295 291 288 287 282 273 265 258 251 247 245 242 241 239 237 236 236 237 239 238 238 238 238 239 240 240 238 237 237 236
341 342 343 343 343 344 344 345 347 349 350 350 350 349 346 345 341 338 339 341 341 342 339 339 342 344 347 350 352 355 357 357 354 349 346 344 344 345 344 344 344 345 346 348 350 350 349 343 332 316 305 299 298 299 302 303 302 301 298 292 291 291 285 275 265 255 248 245 243 240 239 239 238 236 235 236 237 238 239 239 241 242 242 241 239 238 238 237
336 338 340 341 342 342 342 343 344 345 346 347 347 347 346 346 343 338 338 338 337 338 336 336 338 338 339 342 346 350 353 354 352 350 347 344 342 342 341 341 340 341 342 343 345 348 349 348 343 333 319 308 303 302 304 307 307 307 305 301 299 297 289 277 264 254 248 244 241 239 238 238 237 236 235 233 233 235 236 238 239 240 240 240 240 240 239 239
332 334 336 338 339 340 340 341 341 342 343 343 344 345 345 345 344 340 337 335 333 333 333 333 334 334 333 333 336 341 346 348 348 348 347 345 343 341 339 338 337 337 338 339 340 343 347 348 346 342 332 320 311 308 309 312 314 314 312 310 309 306 297 281 266 257 251 246 241 239 238 238 237 235 235 233 231 232 233 233 234 236 237 239 240 240 240 240
328 330 332 333 336 338 338 339 340 340 340 340 341 343 343 343 342 341 337 332 329 330 330 329 330 331 330 329 330 332 337 341 341 342 344 345 344 342 340 337 335 334 335 336 337 339 341 343 344 343 340 332 321 316 315 316 319 320 318 318 317 315 304 287 272 262 253 245 241 238 237 237 237 236 235 234 233 233 232 232 233 236 238 239 239 240 240 240
324 327 328 330 332 335 336 336 337 338 338 337 338 339 340 340 340 340 337 331 328 327 325 325 327 328 327 327 328 327 329 333 335 337 340 341 342 342 341 339 335 332 332 333 334 335 336 338 339 341 341 337 331 324 320 320 323 324 324 323 324 321 311 295 278 266 254 243 238 235 234 234 236 236 235 234 234 234 234 233 233 235 237 239 240 241 241 240
320 323 325 327 329 331 333 333 334 336 336 335 335 335 336 337 337 337 335 332 330 325 321 323 325 325 324 323 324 325 325 327 330 333 335 337 339 340 341 340 337 333 330 331 331 332 333 334 335 337 339 339 336 331 326 324 326 328 328 329 330 327 320 305 285 271 257 246 240 236 233 232 234 235 235 234 234 236 236 235 235 235 237 239 241 242 242 241
316 319 322 324 326 328 329 330 331 333 334 334 333 332 333 333 333 333 333 332 330 323 319 322 324 323 321 319 320 322 323 324 326 328 330 333 335 337 338 339 338 334 330 329 328 328 330 331 331 333 336 337 337 335 330 328 330 332 333 334 335 333 327 315 295 278 263 252 246 241 237 233 233 235 235 233 234 237 238 237 237 237 238 240 241 242 243 243
312 315 319 322 323 324 325 327 329 330 332 332 331 329 329 330 330 330 330 330 328 323 320 322 325 324 321 319 318 319 321 322 324 324 325 328 331 333 334 336 337 334 330 328 327 326 327 328 329 330 333 336 337 337 335 333 333 335 337 339 340 336 331 323 307 288 273 260 251 247 242 236 234 234 234 233 233 236 238 237 237 238 238 240 242 243 244 244
309 312 316 319 321 322 322 324 326 328 328 329 329 327 327 328 328 327 327 326 326 323 321 322 324 325 325 323 320 319 321 322 324 324 323 324 327 330 330 332 334 333 329 326 326 325 325 326 327 328 331 334 336 337 338 336 336 337 339 342 343 339 334 330 321 303 284 269 257 249 241 236 235 234 235 234 232 234 236 236 237 238 238 238 240 243 245 246
306 309 312 316 318 319 320 321 323 324 325 326 325 325 327 327 325 324 323 323 322 322 321 320 320 321 324 325 323 321 322 322 323 323 323 322 324 326 326 328 330 331 329 326 325 324 324 324 325 327 329 331 333 336 339 338 336 338 340 342 345 342 336 330 324 313 296 279 266 256 244 238 235 234 236 238 237 236 237 238 239 240 241 241 241 243 246 247
304 306 309 312 314 316 318 319 320 321 322 323 322 323 326 325 323 321 319 320 321 320 319 318 316 316 318 322 324 324 323 323 323 322 322 322 323 323 323 324 327 328 328 325 324 323 322 322 323 325 327 329 331 334 338 338 337 338 339 342 346 345 338 329 321 315 305 289 276 265 254 246 241 237 238 241 240 240 241 241 241 242 243 244 243 244 246 246
302 304 307 309 312 314 315 316 318 319 320 320 319 320 323 323 321 318 316 317 319 318 318 317 315 314 314 317 320 322 322 324 326 324 321 321 322 322 322 323 324 325 326 325 323 322 321 321 321 323 325 327 330 332 336 338 337 338 339 342 346 346 341 332 324 317 308 296 286 276 264 256 249 242 241 243 243 244 244 243 243 243 243 243 243 244 245 245
301 303 305 307 309 311 313 314 315 316 317 317 317 318 319 319 318 316 314 315 316 317 316 315 313 312 312 313 314 315 317 321 326 327 323 320 321 321 321 322 322 323 325 325 323 321 320 319 319 321 323 325 328 330 333 337 337 338 339 341 345 346 343 334 326 318 309 297 288 281 273 264 257 249 247 247 245 245 244 243 243 243 243 243 243 244 244 245
300 302 303 305 307 309 310 312 313 314 314 314 315 316 316 315 315 315 314 314 313 313 314 313 311 310 310 310 309 310 314 318 321 326 327 322 319 318 319 321 321 322 324 325 323 321 318 317 317 318 320 323 326 328 331 335 337 337 338 340 344 346 343 335 326 319 310 300 289 283 276 269 264 259 255 253 250 248 246 244 243 243 243 243 243 244 244 245
298 300 301 303 305 307 308 309 310 311 312 312 313 314 313 313 312 313 314 313 311 310 311 312 310 308 308 307 306 306 310 314 316 321 326 325 321 316 316 319 320 320 323 325 324 321 317 315 315 316 318 321 324 327 330 333 336 337 337 339 342 345 343 335 327 321 312 303 293 284 278 273 270 265 260 257 255 252 249 247 246 244 245 245 244 243 244 245
296 298 299 301 303 305 306 307 308 309 310 310 310 311 311 310 310 311 312 311 310 308 308 309 308 307 307 307 305 305 308 311 313 316 321 325 324 318 314 316 318 319 321 323 323 321 316 314 313 314 315 318 321 325 328 331 334 336 336 338 340 344 343 337 329 324 318 310 302 291 281 274 271 269 265 261 257 254 251 250 250 248 248 248 248 246 245 245
294 296 297 299 301 303 304 305 305 306 308 308 308 308 308 308 308 308 309 310 309 307 306 306 307 307 306 306 305 304 306 309 311 313 317 322 325 322 316 313 316 318 319 321 322 321 316 313 312 312 313 315 319 323 327 329 332 334 335 336 339 342 343 338 331 327 323 318 312 303 287 276 276 279 277 265 255 253 251 249 249 250 250 250 251 251 249 247
293 294 295 297 299 301 302 302 302 304 306 306 306 306 306 305 305 305 306 307 307 305 304 304 304 304 304 304 303 303 305 307 308 310 314 318 322 323 319 314 313 316 318 319 320 320 317 312 310 310 311 313 316 320 325 327 330 333 334 335 338 341 342 339 333 330 326 322 318 311 298 286 284 285 280 267 253 248 247 248 249 251 251 252 253 254 253 250
291 292 294 295 296 299 301 301 300 302 303 304 304 304 304 303 302 302 304 305 305 304 303 302 302 302 302 302 301 303 305 306 306 307 311 314 317 319 319 315 311 311 315 317 318 319 318 313 310 309 309 311 313 317 322 325 328 331 333 334 336 340 342 339 335 331 327 324 322 316 308 300 293 286 276 261 246 242 243 246 250 252 253 254 255 255 254 253
290 291 292 293 295 297 299 299 299 299 301 302 303 303 302 301 300 301 302 302 303 303 302 301 300 300 300 300 301 302 304 305 305 305 308 312 313 314 316 316 311 307 310 313 314 317 318 314 309 307 307 308 311 314 319 323 327 329 332 333 335 339 341 340 335 331 328 326 325 321 316 311 302 292 279 257 242 242 245 245 247 250 252 253 254 254 253 253
289 290 291 293 294 296 297 297 297 297 299 300 300 301 300 299 298 299 299 300 301 302 301 299 298 298 298 298 299 300 301 302 303 303 306 310 312 311 313 315 312 306 305 310 311 313 317 315 310 306 305 307 309 312 316 321 325 328 330 332 334 337 340 340 335 331 329 328 327 324 320 317 311 303 288 261 243 241 243 242 243 246 249 251 251 250 249 248
289 290 291 292 293 294 294 295 295 296 297 297 298 298 298 296 296 296 297 298 300 300 299 298 296 295 295 296 298 298 298 299 299 300 303 308 308 307 308 311 313 307 302 306 309 310 313 314 311 306 303 305 307 309 314 319 323 326 329 330 332 336 339 339 335 331 329 329 329 328 324 320 317 312 301 275 250 241 240 240 241 243 244 244 242 240 240 241
287 289 290 291 292 292 292 293 293 294 294 295 296 296 295 294 294 294 295 296 296 296 296 295 293 292 293 294 295 295 294 294 294 296 301 304 304 303 304 307 310 308 301 300 306 309 310 312 311 306 302 303 305 307 311 317 321 324 326 328 329 334 338 338 336 332 330 330 330 330 327 322 319 317 311 290 260 242 237 235 234 233 231 231 232 234 237 241
286 287 288 289 290 291 291 291 291 292 292 293 294 294 292 292 292 292 292 292 292 291 291 291 290 290 291 292 292 292 291 291 292 295 298 300 300 301 301 302 306 307 300 296 302 307 307 309 310 306 302 301 303 304 308 314 319 322 324 325 327 332 336 338 337 332 330 329 329 331 330 325 322 320 314 302 274 250 238 231 227 226 227 230 234 237 240 243
286 287 288 288 289 289 289 290 290 290 291 292 292 291 291 291 290 289 289 289 289 289 289 288 287 287 289 290 290 289 288 290 293 294 294 294 296 297 297 296 300 304 300 294 296 302 303 305 308 307 301 299 300 302 305 311 317 320 322 323 325 331 336 338 337 333 328 328 328 330 331 328 325 322 316 310 290 265 248 238 233 233 235 238 240 241 242 242
285 286 286 287 288 288 289 289 289 289 289 289 289 289 289 289 288 287 287 287 287 287 287 286 285 285 286 287 288 286 286 289 291 291 290 291 291 292 292 293 296 301 299 293 291 297 300 301 304 306 301 297 298 300 302 309 315 317 319 321 323 330 335 337 337 333 327 325 325 327 330 330 328 322 312 301 286 268 256 249 246 244 245 245 242 238 235 233
284 285 285 286 287 288 288 288 288 287 287 286 286 287 287 286 285 285 285 286 286 287 287 285 283 282 283 284 285 285 285 288 289 289 289 289 288 288 289 291 294 297 298 294 290 293 297 297 300 304 301 296 295 298 300 305 312 315 316 318 321 328 334 336 337 333 325 321 322 323 327 330 330 326 313 295 276 263 255 250 245 240 238 235 226 219 219 220
Height
10740 10738 10736 10734 10732 10731 10729 10727 10725 10724 10722 10721 10719 10717 10715 10713 10711 10709 10707 10704 10702 10699 10696 10693 10690 10686 10683 10680 10676 10673 10669 10664 10659 10654 10649 10645 10641 10638 10636 10634 10632 10631 10631 10631 10631 10632 10633 10634 10636 10637 10639 10642 10646 10649 10654 10658 10661 10666 10671 10677 10682 10685 10688 10690 10693 10694 10695 10697 10699 10701 10704 10706 10708 10711 10713 10716 10720 10723 10723 10724 10725 10730 10733 10734 10735 10734 10735 10738
10740 10738 10736 10735 10733 10731 10729 10727 10725 10723 10722 10720 10718 10716 10714 10712 10710 10707 10705 10702 10700 10697 10694 10691 10688 10685 10682 10678 10675 10672 10669 10664 10660 10654 10650 10645 10641 10638 10636 10634 10632 10631 10630 10630 10630 10631 10632 10633 10634 10636 10638 10641 10644 10648 10652 10656 10660 10664 10669 10674 10679 10682 10685 10688 10690 10692 10693 10694 10697 10699 10701 10704 10706 10709 10712 10716 10720 10721 10721 10723 10725 10728 10731 10731 10731 10731 10732 10734
10740 10738 10737 10735 10733 10731 10729 10727 10725 10723 10721 10719 10717 10715 10713 10710 10708 10706 10703 10701 10698 10695 10692 10690 10687 10684 10681 10677 10675 10672 10668 10665 10660 10655 10650 10646 10642 10639 10636 10634 10632 10631 10630 10630 10630 10630 10631 10632 10634 10635 10638 10641 10644 10648 10651 10654 10658 10662 10667 10672 10677 10680 10683 10686 10688 10690 10691 10692 10694 10697 10699 10702 10704 10707 10711 10715 10719 10720 10720 10723 10725 10726 10728 10728 10727 10727 10728 10731
10740 10738 10736 10735 10733 10731 10729 10727 10725 10723 10721 10719 10716 10714 10711 10709 10706 10704 10702 10699 10696 10693 10691 10688 10685 10683 10680 10677 10674 10671 10668 10665 10661 10656 10651 10647 10643 10639 10636 10634 10633 10631 10630 10630 10630 10630 10631 10632 10634 10636 10638 10641 10644 10647 10650 10653 10657 10661 10666 10671 10675 10679 10681 10683 10685 10687 10688 10689 10692 10694 10697 10700 10703 10706 10710 10713 10717 10719 10720 10722 10723 10723 10724 10723 10723 10724 10725 10727
10740 10738 10736 10735 10733 10731 10729 10727 10725 10723 10720 10718 10715 10712 10710 10707 10705 10702 10700 10697 10695 10692 10689 10687 10684 10682 10679 10676 10673 10671 10668 10665 10661 10657 10653 10648 10644 10640 10637 10635 10633 10632 10631 10631 10631 10631 10632 10633 10634 10636 10639 10641 10644 10647 10650 10653 10656 10660 10665 10669 10673 10676 10678 10680 10682 10684 10685 10687 10689 10691 10695 10697 10701 10705 10708 10711 10713 10716 10718 10719 10719 10720 10720 10719 10718 10720 10721 10723
10740 10738 10736 10734 10732 10730 10729 10727 10724 10722 10720 10717 10714 10711 10709 10706 10703 10701 10699 10696 10694 10691 10688 10686 10683 10681 10678 10675 10673 10670 10668 10665 10661 10657 10653 10649 10645 10642 10639 10636 10634 10633 10632 10631 10631 10632 10633 10634 10635 10637 10639 10641 10644 10647 10649 10652 10655 10659 10664 10667 10671 10674 10676 10677 10679 10681 10683 10684 10686 10688 10691 10694 10698 10702 10706 10709 10709 10709 10712 10714 10714 10715 10715 10715 10714 10715 10717 10719
10740 10738 10736 10734 10732 10730 10728 10726 10724 10721 10719 10716 10713 10711 10708 10705 10703 10700 10698 10695 10693 10690 10688 10685 10683 10680 10677 10675 10672 10669 10667 10665 10662 10658 10654 10651 10647 10643 10640 10638 10635 10634 10633 10633 10633 10633 10633 10634 10636 10637 10639 10641 10644 10646 10649 10651 10655 10658 10662 10665 10668 10671 10673 10675 10677 10679 10680 10682 10683 10685 10687 10690 10694 10698 10701 10704 10704 10704 10706 10708 10709 10709 10709 10710 10710 10711 10713 10715
10740 10738 10735 10733 10731 10729 10727 10725 10722 10720 10718 10715 10713 10710 10708 10705 10702 10700 10697 10695 10692 10690 10687 10684 10682 10679 10677 10674 10672 10669 10666 10664 10662 10659 10655 10652 10649 10645 10642 10639 10637 10635 10634 10634 10634 10634 10634 10635 10636 10638 10639 10641 10644 10646 10648 10651 10654 10657 10660 10663 10666 10669 10671 10673 10674 10676 10678 10679 10680 10682 10684 10686 10689 10693 10695 10697 10698 10700 10701 10703 10703 10704 10705 10705 10706 10708 10710 10712
10739 10737 10735 10733 10730 10728 10726 10724 10722 10719 10717 10715 10712 10710 10707 10705 10702 10699 10697 10694 10692 10689 10686 10684 10681 10679 10676 10674 10671 10669 10666 10664 10661 10659 10656 10653 10650 10647 10644 10642 10639 10637 10636 10635 10635 10635 10635 10636 10637 10638 10639 10641 10643 10645 10648 10651 10653 10656 10659 10661 10664 10667 10669 10671 10672 10673 10675 10676 10678 10679 10681 10682 10684 10687 10689 10691 10693 10695 10697 10698 10699 10700 10701 10702 10704 10705 10707 10710
10739 10737 10734 10732 10730 10727 10725 10723 10721 10718 10716 10714 10712 10709 10707 10705 10702 10699 10697 10694 10691 10689 10686 10683 10681 10678 10676 10673 10671 10668 10666 10664 10661 10659 10657 10654 10652 10649 10646 10644 10641 10639 10637 10636 10636 10636 10636 10637 10638 10638 10640 10641 10643 10645 10647 10650 10652 10655 10657 10660 10663 10665 10667 10669 10671 10671 10673 10674 10675 10676 10678 10679 10680 10683 10686 10687 10689 10692 10694 10695 10696 10697 10698 10699 10701 10703 10705 10707
10738 10736 10734 10731 10729 10727 10725 10722 10720 10718 10716 10713 10711 10709 10707 10705 10702 10699 10697 10694 10691 10688 10685 10683 10680 10677 10675 10673 10670 10668 10666 10663 10661 10659 10657 10655 10652 10650 10648 10646 10644 10641 10639 10638 10637 10637 10637 10637 10638 10639 10640 10641 10643 10644 10646 10648 10651 10653 10655 10658 10660 10663 10665 10668 10669 10670 10670 10671 10673 10674 10675 10676 10678 10681 10683 10684 10687 10689 10691 10693 10694 10694 10695 10696 10698 10700 10702 10704
10738 10735 10733 10731 10729 10726 10724 10722 10720 10717 10715 10713 10711 10708 10706 10704 10702 10699 10697 10694 10691 10688 10685 10682 10680 10677 10675 10672 10670 10667 10665 10663 10661 10659 10657 10655 10653 10651 10649 10647 10646 10643 10641 10639 10638 10637 10637 10638 10638 10639 10640 10642 10643 10644 10646 10648 10649 10651 10653 10655 10657 10660 10663 10665 10667 10668 10668 10669 10671 10672 10673 10674 10676 10678 10680 10681 10684 10687 10689 10690 10691 10691 10691 10693 10695 10697 10699 10701
10737 10735 10732 10730 10728 10726 10724 10721 10719 10717 10715 10713 10710 10708 10706 10704 10702 10699 10697 10694 10691 10688 10685 10682 10680 10677 10674 10672 10670 10667 10665 10663 10661 10659 10657 10655 10653 10652 10650 10648 10647 10645 10643 10641 10640 10639 10638 10638 10638 10639 10640 10641 10643 10644 10645 10647 10648 10650 10651 10653 10655 10657 10659 10662 10664 10665 10666 10668 10669 10670 10671 10672 10673 10674 10676 10678 10681 10684 10687 10688 10687 10687 10688 10690 10692 10694 10696 10698
10737 10734 10732 10729 10727 10725 10723 10721 10719 10717 10714 10712 10710 10708 10705 10703 10701 10699 10696 10694 10690 10687 10684 10682 10679 10677 10674 10672 10669 10667 10665 10663 10661 10659 10657 10655 10653 10652 10650 10649 10647 10646 10645 10643 10641 10640 10639 10638 10638 10639 10639 10641 10642 10643 10644 10645 10646 10648 10649 10650 10652 10653 10655 10658 10661 10662 10663 10665 10666 10667 10668 10668 10670 10671 10673 10675 10677 10681 10686 10686 10683 10683 10685 10686 10689 10691 10693 10695
10737 10734 10731 10729 10726 10724 10722 10720 10718 10716 10714 10712 10709 10707 10705 10703 10700 10698 10696 10694 10691 10687 10684 10681 10679 10677 10674 10672 10669 10667 10665 10663 10661 10659 10657 10655 10653 10651 10650 10649 10648 10647 10645 10644 10643 10641 10640 10640 10639 10639 10639 10640 10641 10641 10642 10643 10644 10645 10646 10648 10648 10649 10652 10654 10656 10658 10660 10661 10663 10664 10664 10664 10666 10668 10669 10671 10673 10677 10681 10681 10679 10679 10681 10683 10685 10687 10690 10692
10736 10734 10731 10728 10726 10723 10721 10719 10717 10715 10713 10711 10709 10706 10704 10702 10700 10698 10696 10693 10691 10687 10684 10682 10679 10676 10674 10672 10670 10667 10665 10663 10661 10659 10656 10654 10653 10651 10650 10649 10648 10647 10646 10644 10643 10642 10641 10640 10640 10640 10639 10640 10640 10641 10641 10642 10643 10643 10643 10644 10644 10646 10648 10649 10651 10653 10655 10657 10658 10659 10659 10660 10662 10663 10665 10667 10669 10672 10674 10675 10674 10675 10677 10679 10680 10682 10686 10689
10736 10733 10731 10728 10725 10723 10720 10718 10716 10714 10712 10710 10708 10706 10703 10701 10699 10697 10695 10693 10690 10688 10685 10682 10679 10676 10674 10672 10670 10668 10665 10663 10661 10658 10656 10654 10652 10650 10649 10648 10647 10647 10646 10644 10643 10643 10642 10641 10641 10640 10640 10640 10640 10640 10640 10641 10641 10641 10641 10642 10642 10643 10644 10645 10647 10649 10650 10652 10653 10653 10654 10656 10656 10657 10660 10662 10663 10666 10668 10669 10669 10671 10673 10673 10674 10677 10680 10684
10736 10733 10730 10727 10725 10722 10720 10717 10715 10713 10711 10709 10707 10705 10702 10701 10698 10696 10694 10692 10690 10688 10685 10682 10679 10676 10674 10672 10670 10668 10665 10663 10661 10659 10656 10654 10652 10650 10648 10647 10646 10646 10645 10644 10643 10642 10641 10641 10641 10640 10640 10639 10639 10640 10640 10640 10640 10639 10639 10639 10639 10640 10641 10642 10643 10644 10645 10646 10648 10648 10649 10651 10650 10651 10653 10655 10657 10659 10662 10663 10664 10666 10666 10667 10668 10671 10675 10678
10735 10732 10729 10727 10724 10722 10719 10717 10714 10712 10710 10708 10705 10703 10701 10699 10697 10695 10693 10691 10689 10687 10685 10682 10679 10676 10674 10672 10670 10667 10665 10663 10661 10659 10657 10654 10652 10650 10648 10646 10645 10645 10644 10643 10642 10641 10641 10640 10640 10639 10639 10639 10639 10639 10639 10639 10638 10638 10638 10637 10637 10636 10637 10639 10639 10639 10639 10640 10642 10643 10644 10646 10645 10645 10647 10649 10650 10654 10657 10658 10659 10659 10659 10660 10662 10665 10669 10673
10733 10731 10729 10726 10724 10721 10719 10716 10714 10711 10709 10706 10704 10702 10700 10698 10696 10694 10692 10691 10689 10687 10684 10682 10679 10676 10673 10671 10669 10667 10665 10663 10661 10659 10657 10655 10652 10650 10648 10646 10644 10643 10643 10642 10641 10640 10640 10639 10639 10638 10638 10638 10637 10637 10637 10637 10636 10636 10635 10635 10634 10633 10634 10635 10635 10634 10634 10635 10637 10637 10639 10640 10640 10641 10642 10644 10646 10650 10653 10653 10652 10652 10653 10655 10657 10661 10665 10667
10732 10730 10728 10725 10723 10721 10718 10716 10713 10710 10708 10705 10703 10701 10699 10697 10695 10693 10691 10689 10688 10686 10684 10682 10679 10676 10673 10671 10669 10666 10664 10662 10660 10659 10656 10654 10652 10650 10648 10646 10644 10642 10641 10640 10639 10639 10638 10638 10638 10637 10637 10636 10636 10635 10635 10635 10634 10633 10632 10632 10631 10630 10630 10630 10630 10629 10629 10629 10631 10631 10632 10634 10635 10636 10637 10639 10642 10645 10647 10647 10647 10647 10648 10650 10653 10656 10659 10660
10731 10729 10726 10724 10722 10720 10717 10715 10712 10710 10707 10704 10702 10700 10698 10696 10694 10692 10690 10688 10686 10685 10683 10681 10678 10676 10673 10671 10668 10666 10664 10661 10659 10658 10656 10654 10651 10649 10647 10645 10643 10641 10639 10638 10637 10637 10636 10636 10636 10635 10635 10635 10634 10633 10633 10632 10631 10630 10629 10628 10627 10626 10626 10625 10625 10624 10623 10624 10625 10625 10625 10628 10629 10630 10632 10633 10637 10641 10642 10642 10642 10642 10643 10645 10647 10650 10652 10652
10729 10727 10725 10723 10721 10718 10716 10714 10712 10709 10706 10704 10701 10699 10697 10694 10693 10690 10688 10687 10685 10683 10681 10680 10678 10675 10673 10670 10668 10665 10663 10661 10658 10656 10655 10653 10651 10648 10646 10644 10642 10640 10638 10637 10635 10634 10634 10633 10633 10632 10632 10632 10632 10631 10630 10629 10628 10627 10626 10624 10623 10621 10621 10620 10619 10619 10618 10618 10619 10619 10619 10621 10623 10624 10626 10628 10632 10637 10638 10636 10636 10637 10638 10639 10641 10644 10644 10644
10728 10726 10724 10721 10719 10717 10715 10713 10711 10708 10705 10703 10700 10698 10696 10693 10691 10689 10687 10685 10683 10681 10680 10678 10677 10675 10672 10670 10667 10665 10663 10660 10657 10655 10653 10651 10650 10648 10645 10643 10641 10639 10637 10636 10634 10633 10631 10630 10630 10629 10629 10628 10628 10627 10626 10625 10624 10622 10622 10621 10618 10616 10615 10614 10612 10612 10612 10612 10612 10613 10614 10615 10616 10617 10619 10622 10626 10629 10631 10630 10631 10631 10632 10633 10635 10636 10635 10636
10726 10724 10722 10720 10718 10716 10713 10711 10709 10707 10705 10702 10699 10697 10695 10692 10690 10688 10686 10683 10681 10680 10678 10676 10675 10673 10671 10669 10666 10664 10662 10659 10657 10654 10652 10650 10649 10647 10644 10642 10640 10638 10636 10635 10633 10631 10629 10628 10627 10626 10625 10625 10624 10624 10622 10621 10619 10618 10617 10616 10613 10611 10609 10606 10604 10605 10604 10603 10604 10606 10608 10607 10608 10610 10612 10616 10618 10620 10623 10625 10626 10626 10627 10627 10627 10627 10627 10629
10725 10722 10720 10718 10716 10714 10712 10709 10707 10706 10703 10701 10698 10696 10694 10691 10688 10686 10684 10682 10680 10678 10676 10674 10673 10671 10670 10667 10665 10663 10660 10658 10656 10653 10651 10649 10647 10645 10643 10641 10639 10637 10635 10633 10632 10630 10628 10626 10624 10623 10622 10621 10621 10620 10619 10617 10614 10613 10612 10610 10608 10606 10602 10598 10596 10595 10593 10594 10596 10599 10600 10599 10602 10604 10607 10609 10611 10613 10616 10618 10619 10620 10619 10618 10619 10619 10620 10624
10722 10720 10718 10716 10714 10712 10710 10707 10705 10704 10702 10700 10697 10695 10692 10690 10687 10684 10682 10680 10678 10676 10674 10673 10671 10669 10667 10666 10664 10661 10659 10657 10654 10652 10649 10647 10645 10643 10641 10639 10637 10635 10633 10632 10630 10628 10626 10623 10621 10620 10619 10618 10617 10616 10615 10612 10609 10608 10606 10603 10601 10598 10594 10590 10587 10584 10584 10585 10588 10591 10592 10592 10596 10599 10600 10603 10605 10607 10610 10611 10613 10612 10610 10610 10611 10612 10614 10618
10718 10717 10716 10714 10712 10710 10708 10705 10703 10701 10700 10698 10696 10694 10691 10688 10686 10683 10680 10678 10676 10674 10672 10671 10669 10667 10665 10663 10661 10659 10657 10655 10652 10650 10647 10645 10643 10641 10639 10637 10635 10633 10631 10630 10628 10626 10624 10622 10619 10617 10616 10614 10613 10612 10610 10608 10605 10602 10599 10596 10594 10590 10586 10582 10578 10576 10578 10580 10581 10584 10585 10586 10589 10591 10593 10596 10599 10602 10604 10605 10605 10604 10602 10603 10604 10604 10607 10611
10713 10713 10712 10711 10709 10708 10706 10703 10701 10699 10697 10695 10693 10691 10689 10687 10684 10681 10678 10676 10674 10672 10670 10668 10667 10665 10663 10660 10658 10657 10655 10653 10650 10648 10646 10643 10641 10639 10637 10635 10633 10631 10629 10627 10625 10624 10621 10619 10617 10615 10613 10610 10609 10608 10606 10603 10600 10597 10593 10590 10587 10583 10579 10575 10572 10571 10572 10574 10575 10576 10578 10580 10581 10584 10586 10590 10593 10595 10595 10595 10595 10595 10594 10595 10596 10597 10599 10603
10709 10708 10708 10707 10706 10705 10703 10701 10698 10697 10694 10692 10690 10688 10687 10685 10682 10680 10677 10675 10672 10670 10668 10666 10664 10662 10660 10658 10656 10654 10652 10650 10648 10646 10644 10641 10639 10636 10634 10633 10631 10628 10626 10624 10622 10621 10619 10617 10615 10612 10610 10607 10605 10603 10601 10599 10596 10592 10588 10584 10580 10577 10573 10569 10566 10565 10566 10567 10567 10568 10570 10572 10574 10576 10579 10584 10587 10586 10583 10584 10587 10588 10587 10588 10589 10589 10591 10595
10706 10704 10703 10703 10703 10702 10700 10698 10696 10694 10692 10689 10687 10685 10684 10682 10680 10678 10675 10673 10671 10668 10666 10664 10662 10660 10658 10656 10653 10651 10649 10648 10646 10644 10642 10639 10637 10634 10632 10630 10628 10625 10623 10621 10619 10617 10616 10614 10612 10609 10607 10604 10601 10599 10597 10595 10591 10588 10584 10579 10574 10570 10567 10565 10562 10560 10560 10560 10560 10561 10562 10565 10567 10567 10571 10576 10578 10575 10574 10577 10579 10580 10580 10580 10581 10582 10584 10587
10703 10701 10699 10699 10699 10698 10696 10695 10693 10691 10689 10687 10684 10682 10680 10679 10676 10675 10673 10670 10668 10666 10664 10662 10660 10658 10655 10653 10651 10649 10647 10645 10643 10641 10639 10637 10635 10632 10629 10627 10625 10623 10620 10618 10616 10614 10613 10611 10609 10607 10604 10601 10597 10594 10592 10590 10587 10583 10579 10574 10570 10565 10563 10560 10558 10556 10555 10555 10556 10556 10557 10561 10561 10560 10563 10568 10568 10567 10567 10569 10571 10572 10573 10574 10575 10576 10577 10580
10699 10697 10696 10694 10694 10694 10692 10691 10689 10688 10686 10684 10681 10679 10677 10675 10673 10671 10670 10668 10666 10664 10662 10659 10657 10655 10653 10651 10648 10646 10644 10642 10641 10639 10637 10635 10633 10630 10627 10625 10623 10620 10618 10615 10614 10612 10610 10608 10606 10603 10601 10598 10594 10590 10587 10585 10582 10579 10574 10570 10565 10561 10559 10557 10554 10552 10551 10551 10551 10551 10554 10556 10554 10553 10556 10557 10558 10559 10558 10560 10562 10564 10566 10569 10570 10570 10571 10573
10695 10693 10692 10691 10689 10689 10688 10687 10685 10684 10683 10681 10679 10676 10674 10672 10670 10668 10666 10665 10663 10661 10659 10656 10654 10652 10650 10648 10646 10644 10642 10639 10638 10636 10634 10632 10630 10627 10625 10623 10621 10618 10615 10612 10610 10609 10607 10605 10602 10600 10598 10595 10591 10588 10584 10580 10578 10575 10571 10567 10562 10557 10554 10552 10550 10549 10548 10547 10547 10547 10550 10549 10547 10548 10548 10546 10548 10550 10549 10551 10554 10556 10559 10563 10565 10565 10566 10569
10691 10689 10688 10687 10685 10684 10683 10682 10681 10680 10679 10678 10676 10673 10671 10669 10666 10664 10663 10662 10660 10658 10655 10653 10652 10650 10647 10645 10643 10641 10638 10636 10634 10633 10631 10628 10627 10625 10622 10620 10618 10616 10612 10609 10607 10605 10603 10601 10599 10597 10594 10592 10589 10585 10582 10578 10575 10572 10568 10564 10560 10555 10551 10548 10547 10546 10546 10545 10543 10543 10544 10543 10543 10544 10541 10540 10542 10543 10544 10546 10548 10550 10554 10558 10561 10562 10563 10565
10686 10684 10683 10682 10681 10679 10678 10677 10677 10675 10674 10673 10671 10669 10667 10665 10663 10661 10659 10658 10657 10654 10652 10650 10648 10646 10644 10642 10640 10638 10635 10633 10631 10629 10627 10625 10623 10621 10619 10616 10615 10613 10610 10607 10604 10602 10600 10598 10596 10594 10591 10589 10586 10583 10579 10576 10572 10569 10566 10562 10558 10554 10551 10547 10545 10544 10543 10542 10541 10540 10540 10539 10539 10540 10537 10536 10537 10538 10540 10543 10545 10547 10550 10552 10555 10556 10556 10559
10680 10679 10678 10677 10676 10675 10673 10672 10671 10670 10669 10668 10667 10665 10663 10662 10660 10657 10655 10654 10653 10651 10649 10647 10644 10642 10641 10639 10637 10635 10633 10630 10628 10626 10624 10622 10620 10618 10616 10614 10611 10609 10607 10604 10602 10599 10597 10595 10593 10591 10588 10586 10583 10580 10577 10573 10570 10566 10563 10559 10555 10551 10549 10546 10543 10541 10540 10539 10537 10537 10536 10535 10535 10536 10533 10532 10533 10534 10536 10539 10540 10542 10543 10544 10545 10546 10548 10551
10674 10673 10672 10671 10670 10669 10668 10667 10666 10664 10663 10662 10661 10661 10659 10658 10656 10654 10651 10650 10649 10647 10645 10643 10641 10638 10636 10635 10633 10631 10629 10627 10625 10623 10621 10619 10617 10615 10613 10611 10609 10607 10604 10601 10599 10596 10594 10592 10590 10588 10585 10583 10580 10577 10575 10571 10568 10564 10560 10557 10553 10549 10546 10543 10541 10539 10537 10536 10534 10533 10533 10531 10530 10530 10529 10528 10529 10530 10531 10533 10534 10534 10534 10535 10537 10539 10541 10544
10667 10667 10666 10665 10664 10663 10663 10662 10660 10659 10657 10656 10655 10655 10655 10653 10651 10649 10647 10645 10644 10643 10641 10639 10637 10635 10632 10631 10629 10627 10625 10624 10622 10620 10617 10615 10613 10611 10609 10608 10605 10603 10601 10598 10596 10593 10591 10589 10587 10584 10582 10580 10577 10574 10571 10568 10565 10561 10558 10554 10551 10547 10544 10541 10539 10537 10535 10533 10531 10529 10528 10526 10525 10525 10524 10524 10525 10525 10526 10526 10526 10527 10527 10529 10531 10533 10536 10538
10660 10660 10660 10659 10658 10657 10656 10656 10655 10653 10652 10650 10649 10649 10649 10648 10646 10644 10642 10641 10640 10638 10637 10635 10633 10631 10629 10627 10625 10623 10621 10620 10618 10616 10614 10612 10609 10607 10605 10604 10602 10600 10597 10595 10593 10590 10588 10586 10584 10581 10578 10577 10574 10571 10568 10565 10562 10558 10555 10552 10548 10545 10542 10539 10537 10534 10532 10530 10528 10526 10523 10521 10520 10519 10519 10520 10521 10521 10521 10520 10520 10521 10522 10523 10525 10528 10531 10533
10653 10653 10653 10653 10652 10651 10650 10650 10649 10647 10646 10644 10643 10643 10643 10642 10640 10639 10637 10636 10634 10633 10632 10630 10628 10627 10625 10623 10621 10619 10617 10616 10614 10612 10611 10609 10606 10603 10601 10599 10598 10596 10594 10592 10590 10587 10585 10583 10581 10578 10575 10573 10571 10569 10566 10563 10559 10556 10552 10549 10546 10542 10538 10536 10533 10531 10529 10527 10525 10523 10520 10516 10513 10512 10514 10515 10516 10516 10516 10515 10515 10515 10517 10518 10520 10521 10525 10528
10647 10647 10646 10646 10646 10644 10644 10643 10642 10641 10640 10639 10637 10637 10636 10635 10634 10633 10632 10630 10629 10628 10626 10625 10624 10622 10620 10619 10617 10615 10613 10612 10610 10608 10607 10606 10603 10600 10598 10596 10594 10592 10591 10589 10586 10584 10582 10580 10578 10576 10573 10570 10568 10566 10563 10560 10557 10554 10550 10547 10543 10539 10535 10532 10529 10527 10525 10523 10521 10520 10517 10512 10507 10507 10510 10511 10510 10509 10509 10509 10509 10510 10512 10513 10514 10516 10519 10522
10640 10640 10639 10639 10639 10638 10637 10637 10635 10634 10634 10633 10632 10631 10630 10629 10628 10627 10627 10625 10624 10622 10621 10620 10619 10618 10616 10614 10612 10611 10610 10608 10606 10604 10603 10602 10600 10597 10594 10592 10591 10589 10587 10585 10583 10581 10579 10577 10575 10573 10571 10568 10565 10563 10561 10558 10554 10551 10548 10544 10540 10536 10532 10529 10526 10523 10520 10518 10517 10515 10513 10509 10505 10504 10505 10505 10505 10504 10503 10503 10504 10505 10507 10508 10509 10510 10512 10515
10633 10633 10633 10632 10632 10631 10631 10629 10628 10627 10627 10626 10625 10625 10624 10622 10620 10620 10621 10620 10618 10616 10615 10614 10613 10612 10611 10609 10607 10606 10605 10604 10602 10599 10598 10598 10597 10594 10592 10589 10587 10586 10584 10582 10580 10578 10576 10574 10572 10570 10568 10565 10563 10560 10558 10556 10552 10549 10545 10541 10538 10534 10530 10526 10522 10519 10517 10514 10512 10510 10507 10505 10503 10500 10499 10500 10500 10499 10498 10499 10500 10501 10502 10503 10504 10505 10506 10508
10625 10625 10625 10625 10624 10624 10624 10622 10620 10620 10619 10619 10618 10618 10617 10615 10613 10612 10613 10613 10612 10611 10609 10608 10607 10607 10605 10604 10602 10601 10600 10599 10597 10594 10594 10594 10593 10590 10588 10586 10584 10582 10580 10579 10577 10575 10573 10571 10569 10567 10565 10562 10560 10558 10555 10553 10550 10547 10543 10539 10535 10531 10527 10523 10520 10517 10514 10511 10509 10506 10503 10501 10499 10496 10495 10495 10494 10494 10495 10496 10497 10498 10499 10499 10500 10500 10501 10502
10616 10617 10617 10616 10616 10617 10616 10614 10613 10612 10611 10611 10611 10611 10609 10608 10606 10605 10606 10606 10606 10605 10604 10602 10601 10601 10599 10598 10597 10597 10595 10594 10592 10589 10589 10590 10589 10586 10584 10582 10580 10578 10577 10575 10573 10571 10569 10567 10565 10564 10562 10559 10557 10555 10553 10551 10548 10544 10540 10537 10533 10529 10525 10521 10518 10515 10512 10509 10506 10503 10500 10497 10495 10493 10491 10490 10490 10491 10492 10493 10493 10494 10495 10495 10495 10495 10496 10496
10607 10607 10607 10607 10608 10608 10607 10606 10605 10604 10603 10603 10604 10603 10601 10600 10600 10599 10598 10598 10598 10598 10597 10596 10595 10594 10594 10592 10592 10592 10590 10589 10587 10585 10585 10586 10584 10582 10580 10579 10576 10574 10573 10571 10569 10568 10566 10564 10562 10560 10558 10556 10554 10551 10549 10548 10546 10542 10539 10535 10532 10528 10524 10520 10516 10513 10510 10507 10504 10501 10498 10495 10492 10490 10488 10487 10487 10487 10488 10489 10490 10491 10491 10492 10492 10492 10492 10493
10598 10598 10598 10598 10599 10598 10598 10597 10596 10595 10595 10594 10596 10596 10593 10591 10592 10591 10591 10591 10591 10590 10591 10590 10588 10588 10588 10587 10586 10586 10585 10583 10582 10580 10581 10581 10579 10578 10577 10575 10573 10570 10569 10568 10566 10564 10563 10561 10559 10557 10555 10553 10551 10549 10546 10545 10543 10540 10537 10533 10530 10527 10523 10519 10515 10512 10509 10505 10503 10500 10496 10493 10491 10488 10487 10486 10485 10485 10486 10486 10487 10488 10488 10488 10489 10489 10489 10490
10589 10589 10588 10588 10589 10589 10589 10588 10587 10586 10586 10586 10587 10587 10584 10584 10584 10584 10584 10585 10584 10583 10584 10584 10582 10581 10582 10582 10581 10580 10579 10577 10577 10576 10576 10575 10574 10573 10572 10571 10569 10567 10565 10564 10562 10561 10559 10557 10555 10554 10551 10550 10549 10546 10544 10543 10541 10538 10534 10531 10528 10525 10521 10517 10513 10510 10507 10504 10501 10499 10496 10493 10490 10488 10486 10485 10484 10484 10484 10484 10485 10485 10486 10486 10487 10487 10488 10488
10579 10579 10579 10579 10580 10580 10579 10579 10578 10577 10577 10577 10578 10577 10575 10575 10576 10575 10576 10577 10576 10575 10576 10576 10575 10574 10575 10575 10574 10573 10572 10571 10572 10571 10571 10570 10569 10568 10568 10566 10565 10563 10561 10560 10559 10557 10556 10554 10552 10550 10548 10547 10546 10543 10541 10540 10538 10535 10532 10528 10525 10523 10519 10515 10512 10508 10506 10503 10501 10498 10495 10492 10490 10488 10487 10486 10485 10484 10484 10484 10484 10484 10484 10485 10485 10486 10486 10486
10568 10569 10569 10569 10570 10570 10569 10568 10568 10568 10568 10567 10567 10567 10567 10567 10567 10566 10568 10569 10568 10567 10567 10568 10568 10568 10568 10568 10568 10566 10564 10566 10566 10564 10564 10564 10563 10563 10563 10561 10560 10559 10557 10556 10555 10553 10552 10550 10548 10547 10545 10543 10543 10541 10538 10537 10536 10533 10529 10526 10523 10521 10518 10514 10510 10507 10505 10502 10500 10497 10495 10493 10490 10488 10487 10486 10485 10485 10484 10484 10484 10484 10484 10484 10484 10484 10485 10485
10557 10557 10557 10558 10559 10559 10557 10558 10558 10558 10558 10557 10557 10558 10558 10557 10557 10558 10559 10559 10559 10559 10558 10559 10560 10560 10560 10560 10560 10559 10558 10560 10559 10557 10557 10558 10557 10557 10557 10556 10555 10554 10552 10552 10551 10549 10548 10546 10545 10544 10542 10539 10539 10539 10536 10534 10534 10530 10527 10524 10521 10519 10516 10512 10509 10507 10504 10502 10499 10497 10495 10493 10490 10488 10487 10486 10485 10484 10484 10483 10483 10483 10483 10483 10483 10483 10484 10484